Terminal Aerodrome Forecast
Issued by NWS

Current Version | Previous Version | Text Only | Print | Product List | Glossary Off
Versions: 1 2 3 4 5 6 7 8 9 10 11 12 13 14 15 16 17 18 19 20 21

000
FTUS41 KPBZ 231500 AAA
TAFHLG
TAF AMD
KHLG 231559Z 2316/2412 24008KT P6SM FEW120 BKN200
     FM231900 29012KT P6SM BKN035
     FM240200 31006KT P6SM SCT035=

USA.gov is the U.S. government's official web portal to all federal, state and local government web resources and services.